Helicity
60 51 47 31 52 66 38 72 80 48 56 53 61 78 40 63 68 82 47 94 52 82 78 66 61 63 94 97 107 94 99 107 98 107 112 145 167 162 142 126 126 118 112 84 81 88 98 104 111
73 80 65 86 89 71 33 81 53 52 98 90 76 39 57 46 28 51 72 66 77 77 76 71 74 72 114 129 112 94 101 115 119 124 105 165 168 168 152 137 127 119 110 91 87 96 107 112 123
80 70 85 101 75 27 29 81 72 113 68 81 79 32 60 80 38 41 76 111 105 92 80 101 96 92 131 144 121 87 77 99 125 141 148 140 145 137 135 139 125 111 120 106 89 101 110 131 155
87 118 142 105 59 36 55 91 98 82 48 60 60 57 49 61 45 26 86 131 127 96 90 132 103 112 123 140 120 96 70 59 85 71 66 65 60 72 84 75 97 110 90 94 80 110 130 148 165
95 141 103 80 33 19 78 87 72 77 88 69 78 39 71 47 59 52 91 128 121 105 102 99 101 114 114 138 99 93 75 38 41 62 58 97 122 129 120 110 97 77 87 53 94 127 146 156 165
119 158 112 78 43 72 46 62 75 43 54 68 43 27 26 91 55 64 100 123 119 106 110 107 114 101 101 116 96 76 65 47 16 67 86 131 174 190 183 183 192 171 140 91 46 93 151 168 172
92 98 72 55 40 67 50 69 91 69 63 51 70 70 75 25 57 86 101 132 119 113 125 122 115 94 78 95 91 68 73 73 66 107 142 198 238 261 259 217 141 115 186 73 77 110 170 183 175
125 130 65 59 60 11 71 64 102 70 94 131 61 102 72 74 70 86 104 123 124 122 142 145 130 99 96 98 106 99 91 88 124 146 188 220 260 247 227 254 136 139 101 106 85 134 137 195 182
116 166 112 59 66 63 88 25 52 132 122 96 76 145 196 128 60 73 89 97 117 139 149 150 126 105 90 110 116 129 105 85 126 179 232 212 128 156 192 143 141 153 111 127 170 171 139 198 171
170 152 101 84 132 58 84 77 74 82 54 80 81 103 153 87 69 54 62 80 87 105 147 142 120 111 102 104 89 84 78 82 83 103 127 106 109 125 127 122 109 70 72 135 118 86 114 125 103
166 98 101 107 102 43 64 46 49 81 93 51 81 98 125 97 111 74 44 59 72 88 115 109 114 109 117 119 101 87 96 97 129 131 127 127 138 145 135 60 55 48 86 128 185 159 78 70 98
144 127 108 109 54 66 63 54 57 63 53 48 55 105 108 92 97 80 59 48 63 71 108 99 113 129 119 131 133 97 110 111 147 162 162 147 126 114 88 56 22 100 155 129 144 130 85 67 68
117 131 87 96 53 58 62 67 63 56 44 17 38 47 59 97 101 108 85 65 55 54 73 122 126 126 118 127 130 129 91 99 81 141 141 145 143 109 81 47 83 162 198 168 144 113 64 86 76
152 43 98 65 64 79 65 61 43 62 22 22 68 52 65 77 81 125 115 73 63 39 72 126 141 127 136 132 145 144 121 89 83 108 114 97 92 119 93 68 124 199 193 197 196 142 73 73 77
162 123 96 101 87 69 66 46 54 40 24 38 33 66 67 79 88 98 97 91 45 55 70 116 157 145 164 142 144 126 126 102 83 116 119 97 76 82 88 115 143 231 282 147 255 114 82 71 79
95 103 117 75 55 58 68 42 104 110 68 66 56 65 91 87 106 98 95 73 75 65 91 116 156 170 167 147 175 149 121 129 86 99 121 90 66 54 78 96 183 268 271 180 236 165 91 66 76
99 135 59 143 83 51 50 84 54 126 106 56 79 78 78 98 117 110 98 91 86 79 90 123 142 180 178 154 177 156 134 147 105 115 130 107 100 76 110 155 233 332 321 231 113 111 88 81 62
194 129 200 142 81 35 67 55 103 68 63 60 104 102 87 76 67 59 88 90 78 83 90 104 137 182 212 210 203 173 151 140 127 143 135 79 85 92 117 150 227 368 313 293 242 195 91 65 70
185 182 103 89 99 143 78 88 100 89 81 100 85 75 60 53 36 32 38 69 96 75 84 99 150 189 280 296 277 224 176 162 152 151 94 31 116 181 95 111 231 303 317 298 217 112 81 100 117
163 135 164 75 94 69 83 90 90 101 91 68 55 54 49 53 65 60 54 54 35 70 90 86 132 190 227 236 200 179 158 140 110 128 59 57 126 108 61 106 373 332 281 265 178 82 95 156 127
56 64 88 114 72 49 76 71 49 30 32 30 73 119 147 140 115 89 71 61 62 58 83 69 121 177 169 185 213 183 136 141 120 127 69 115 185 162 194 225 310 247 349 222 96 66 104 154 124
102 18 48 64 107 106 116 97 115 78 56 63 178 190 155 137 130 127 100 84 66 66 82 49 146 150 147 188 211 173 146 135 84 128 39 111 126 82 93 197 363 350 267 117 105 138 126 145 123
44 42 35 39 71 122 80 84 66 63 99 127 96 114 121 155 154 149 114 124 95 86 78 43 153 122 158 173 182 153 101 96 88 136 86 73 106 87 93 61 83 136 135 116 126 132 139 101 130
30 27 42 55 69 141 71 73 58 87 101 71 78 87 110 122 152 205 147 90 131 121 85 73 145 123 143 161 169 139 105 100 77 151 96 98 113 152 79 37 108 130 133 125 153 188 209 194 166
12 34 103 135 150 147 65 70 94 45 37 44 57 59 67 106 130 169 240 151 88 114 83 101 145 119 131 152 153 143 106 93 44 134 119 114 114 149 105 68 193 144 159 144 183 211 221 241 248
11 10 82 152 144 104 48 69 59 28 39 60 52 45 39 56 71 138 203 205 146 100 69 106 104 98 117 152 155 151 107 97 25 103 109 87 83 109 45 60 119 140 127 204 180 201 173 128 125
63 42 99 92 83 81 47 42 6 -27 30 56 84 63 56 93 101 118 197 213 151 92 77 89 89 108 131 130 156 166 121 61 30 73 75 78 72 74 95 60 106 67 204 152 183 183 118 91 90
44 78 58 82 47 57 37 49 82 52 61 68 57 48 66 77 83 119 209 324 114 80 93 107 130 167 180 147 128 153 124 44 40 61 82 79 68 61 70 78 96 103 211 119 87 141 139 86 53
104 73 93 77 95 80 81 53 66 46 22 16 41 38 36 24 116 123 252 402 141 78 122 138 122 157 186 159 114 122 112 64 75 36 76 56 62 49 37 57 93 90 98 94 107 103 110 70 49
71 60 57 62 41 77 58 47 35 11 11 7 -8 22 -12 4 39 103 203 310 267 98 82 104 97 155 178 157 115 106 116 81 89 56 74 60 41 34 33 40 81 52 54 67 51 80 77 63 14
Wind_Speed
16 21 25 30 36 33 38 35 33 30 30 22 18 11 12 32 24 35 27 24 25 25 24 22 22 21 20 18 17 14 11 15 14 14 15 15 16 17 16 18 20 20 19 18 15 14 14 12 11
11 18 26 36 42 43 39 29 31 27 32 25 19 9 16 17 21 27 23 22 24 25 24 23 21 21 21 19 18 17 13 14 14 13 15 14 16 17 17 15 16 17 13 12 12 11 9 10 10
12 19 34 38 41 42 47 33 37 28 36 27 21 15 15 22 18 20 24 21 22 23 23 23 21 20 21 19 18 17 15 15 15 14 16 21 21 23 19 16 15 15 14 11 10 6 5 7 11
17 27 38 45 43 40 46 42 26 30 30 23 20 19 17 20 19 16 17 18 19 21 22 22 20 20 19 18 17 16 14 12 15 19 21 21 19 18 18 18 19 14 11 10 8 7 5 6 10
25 37 47 49 48 43 35 35 33 36 40 32 25 14 21 20 18 16 13 14 16 19 21 20 20 19 18 17 16 16 15 16 16 15 19 20 16 15 14 9 3 4 13 12 6 6 6 7 8
36 44 50 52 51 40 41 46 42 52 48 42 34 22 20 23 12 11 10 11 14 16 20 21 19 18 18 17 17 16 15 14 14 14 14 15 15 16 13 4 6 15 12 19 1 6 6 8 10
41 44 57 64 60 44 43 40 41 54 57 46 38 32 25 26 17 11 8 9 12 14 18 20 18 17 16 16 17 18 14 13 14 12 15 14 14 14 13 5 3 11 8 11 10 5 11 13 14
44 57 65 60 53 57 34 35 39 41 43 38 33 35 25 30 23 11 7 8 9 11 15 17 17 15 15 15 16 16 14 15 16 13 11 9 13 13 11 11 12 10 6 12 13 7 14 14 14
45 57 63 52 54 50 40 39 37 40 46 35 32 36 32 31 13 7 5 11 9 9 10 13 13 14 13 14 15 15 11 12 13 13 11 11 10 13 10 13 14 5 8 6 12 10 18 18 17
52 60 58 64 57 48 40 42 39 41 39 40 32 30 30 26 17 9 8 11 7 7 7 8 10 11 12 11 12 14 9 7 14 13 14 12 10 10 8 4 12 23 19 11 11 16 22 19 19
63 67 64 67 60 61 57 47 52 56 58 42 44 34 40 36 32 26 18 16 9 11 9 2 6 8 10 10 9 8 6 4 4 9 13 10 7 5 10 7 15 22 24 19 15 8 34 26 20
83 81 83 76 70 67 65 62 57 51 58 56 42 56 51 45 43 38 34 21 11 12 9 4 3 4 7 9 7 6 3 3 3 6 7 7 7 7 8 10 16 17 17 19 17 17 50 28 27
79 84 71 74 79 80 73 71 66 61 53 54 58 58 54 55 54 49 48 34 21 14 10 8 6 3 3 5 6 5 2 4 6 8 9 8 9 11 14 12 12 17 18 23 26 23 45 32 28
66 81 88 78 79 79 79 79 67 57 52 55 51 51 54 51 51 54 50 42 24 19 12 9 9 6 1 2 3 3 1 3 7 10 11 12 13 13 13 14 15 24 23 23 30 34 43 27 30
82 89 79 73 69 73 66 90 85 73 66 59 59 56 54 51 54 55 59 46 32 24 19 14 12 9 6 3 1 3 0 3 8 13 15 15 17 16 15 15 21 26 26 23 27 45 45 29 30
72 80 93 78 77 72 61 100 53 42 49 49 51 49 50 51 51 52 53 49 38 29 21 19 16 13 10 6 3 1 1 5 13 14 17 13 15 15 15 15 24 22 24 26 27 46 48 26 27
70 86 79 81 61 65 60 76 61 57 51 52 49 45 42 46 49 49 52 51 47 35 24 22 20 17 14 8 4 3 1 8 12 12 15 11 12 13 14 16 29 21 22 28 30 42 46 27 22
80 77 82 75 57 63 72 75 62 45 44 48 51 52 53 51 51 53 51 54 52 43 32 27 23 18 16 10 6 4 4 10 13 13 15 7 10 14 18 27 32 34 28 36 42 52 50 27 21
83 77 78 67 62 71 77 77 70 62 62 64 65 68 70 72 66 65 63 57 61 49 38 31 27 22 17 13 8 7 8 9 12 13 12 5 7 13 20 22 35 35 35 41 42 51 43 31 25
76 86 89 74 60 71 80 88 81 74 72 72 74 74 75 78 78 75 70 63 53 51 42 35 30 25 21 15 11 8 5 9 13 13 7 5 7 6 17 27 34 43 42 42 50 49 37 27 25
77 82 77 76 68 69 80 95 89 76 68 69 65 62 63 66 75 81 79 71 61 59 47 36 31 27 24 16 8 6 7 13 7 10 7 4 5 7 11 11 29 36 40 47 45 41 32 28 29
77 67 66 66 68 78 51 74 55 57 56 47 42 51 59 63 71 75 77 75 68 67 53 38 32 29 25 20 12 6 4 9 5 5 8 8 10 18 22 7 30 32 44 45 41 35 30 29 29
70 52 57 61 67 70 68 68 58 39 42 35 47 53 58 63 66 70 74 80 76 61 48 37 33 30 27 24 14 6 4 10 8 6 5 7 12 18 18 19 22 33 40 40 34 34 31 29 28
44 44 42 42 49 69 62 58 53 39 41 46 46 52 60 66 67 68 69 71 74 58 44 34 31 31 28 25 17 8 4 7 6 5 5 4 10 9 21 28 17 26 33 34 38 41 41 39 34
34 33 38 45 51 57 33 43 50 41 38 45 52 55 60 66 69 69 69 69 66 53 42 36 34 33 30 25 19 10 5 4 4 5 5 3 6 9 16 31 20 24 33 25 28 32 29 34 33
37 40 39 51 50 43 32 46 36 35 42 46 52 55 62 68 69 71 72 72 69 57 42 38 36 32 30 27 20 11 5 4 8 3 5 1 3 8 21 30 29 33 26 20 24 23 21 26 27
33 47 43 39 34 42 38 33 30 36 48 53 58 62 65 71 71 70 71 71 66 55 49 45 41 33 30 27 22 15 9 6 9 2 2 4 2 2 13 21 23 33 30 26 25 20 23 22 21
37 32 40 42 45 46 35 38 36 46 52 59 66 67 67 70 70 67 66 68 55 52 48 48 45 40 33 28 24 19 12 8 7 9 2 1 4 8 11 11 16 21 23 37 32 23 24 23 25
25 31 35 34 39 37 37 32 37 43 56 63 68 63 66 69 67 61 62 59 42 46 43 46 44 39 35 32 26 19 14 12 9 14 4 2 2 4 8 12 15 19 21 25 24 22 25 32 26
41 35 35 40 38 36 37 37 31 50 57 63 63 59 59 61 62 55 55 50 41 36 40 46 47 41 35 33 29 24 17 13 11 17 17 9 4 7 13 16 17 17 19 24 26 24 25 35 38
Wind_Direction
311 324 324 319 311 312 307 314 316 315 318 332 345 14 9 339 353 339 28 55 56 71 71 65 59 61 57 63 82 94 113 140 145 146 147 138 132 127 124 120 116 112 107 107 102 96 89 80 75
309 320 316 307 298 296 304 309 309 310 316 328 344 350 353 355 1 2 33 57 65 67 62 58 62 63 60 65 82 93 94 126 140 149 151 146 144 138 132 132 128 126 119 114 109 103 93 90 86
305 307 300 299 292 288 297 307 304 310 308 314 331 339 352 345 4 18 28 67 67 57 55 48 58 62 57 66 86 88 99 118 132 145 152 152 150 141 133 133 137 140 134 130 122 111 102 106 108
305 299 296 285 286 296 297 303 306 309 313 317 319 329 342 342 3 21 48 68 61 55 57 49 50 52 55 69 87 95 99 110 128 140 145 147 145 140 134 136 135 140 151 151 136 114 129 139 132
293 292 282 282 283 286 292 301 295 295 302 311 308 303 326 341 346 9 56 69 57 52 47 53 45 48 61 75 92 99 107 124 130 135 145 148 149 146 141 138 154 256 286 248 163 138 141 160 172
280 285 279 277 283 288 288 287 288 285 292 299 301 297 312 317 341 9 32 58 53 52 45 43 41 55 75 81 100 105 107 117 133 141 150 150 149 146 140 139 317 291 313 270 137 126 200 188 201
271 276 276 279 282 287 290 290 284 282 284 292 300 298 309 308 313 337 13 42 42 45 43 40 47 58 79 86 102 114 104 106 120 131 155 160 155 153 154 165 151 282 286 243 286 271 168 207 218
273 276 275 275 280 283 292 290 292 283 285 298 303 297 304 311 300 323 7 16 30 30 37 42 45 57 76 88 108 101 96 108 118 122 138 157 151 159 157 164 312 278 205 258 247 244 181 187 205
272 270 270 272 279 287 291 287 284 286 282 294 299 299 308 314 310 313 338 328 346 359 25 47 48 57 69 80 104 111 94 107 111 112 124 139 152 165 194 286 305 255 250 218 242 194 215 183 202
258 264 265 273 276 285 289 281 287 285 281 282 293 303 310 315 313 281 271 297 301 323 355 52 56 53 55 62 85 122 98 104 131 129 136 140 151 173 181 256 296 284 281 261 219 165 211 187 209
266 258 273 271 272 278 280 281 280 278 275 278 286 296 298 298 298 292 282 281 269 301 317 21 75 53 50 42 74 108 40 6 109 133 143 148 153 197 260 220 289 284 270 271 258 219 228 216 213
263 266 266 269 270 274 274 279 279 278 279 280 285 289 290 289 288 287 287 286 267 282 280 245 152 67 49 53 68 93 89 307 254 170 163 176 203 235 243 262 293 284 259 256 238 237 228 220 221
260 263 268 270 268 269 274 273 277 278 282 282 281 282 284 282 281 282 281 289 284 269 270 235 193 163 53 56 49 86 116 273 223 222 199 221 241 263 269 253 276 269 252 247 248 234 222 221 226
268 264 263 267 268 270 270 271 273 279 280 280 280 280 280 280 279 280 280 284 273 272 266 244 228 202 249 20 66 66 45 301 275 258 248 242 255 265 250 253 250 258 249 245 244 228 222 217 226
261 263 266 266 268 268 275 267 268 274 274 278 280 280 278 277 277 276 276 281 277 274 269 251 248 217 239 240 160 142 145 295 291 285 277 259 248 253 240 232 253 248 244 234 246 225 221 221 227
258 262 262 264 264 264 271 262 281 284 277 277 281 281 278 277 277 277 277 279 279 275 261 256 255 227 232 237 278 230 232 296 305 299 297 268 246 237 223 213 244 231 227 227 227 216 220 214 225
257 257 261 263 265 266 258 271 276 280 278 278 279 282 284 283 280 279 278 278 279 277 264 255 248 227 228 236 255 209 282 309 311 309 301 267 237 225 241 225 244 211 213 211 208 217 223 216 215
253 258 259 262 269 265 265 267 272 279 281 280 281 281 283 285 285 283 281 277 277 279 271 262 250 236 234 253 269 288 302 307 313 318 310 253 217 224 235 243 244 220 214 215 222 226 223 210 197
258 258 261 266 268 266 266 268 272 276 277 278 280 280 279 280 282 281 281 280 274 276 273 259 246 239 228 235 233 282 285 305 309 320 317 233 259 255 228 237 232 223 217 212 215 217 213 218 210
256 258 260 266 266 269 269 268 272 275 276 277 278 279 279 279 277 277 278 279 277 274 270 260 238 229 215 219 210 292 283 309 315 323 322 328 319 312 210 227 211 217 219 210 211 212 214 210 201
253 254 258 262 269 270 272 270 271 276 278 277 279 283 285 286 282 276 275 276 276 271 268 258 233 230 210 202 202 301 338 337 334 333 349 0 24 29 309 192 193 199 204 205 199 208 204 193 215
250 255 260 262 264 263 273 268 277 280 283 283 287 291 291 292 287 282 276 273 271 268 266 260 236 227 209 192 192 215 286 328 336 2 146 45 92 105 106 184 210 201 210 205 207 207 204 207 215
252 258 260 261 261 267 267 270 276 283 282 288 295 295 294 294 291 286 277 268 265 265 262 255 241 224 209 195 196 214 284 335 357 39 53 88 115 124 114 133 202 210 212 213 212 214 214 220 221
257 252 257 263 265 263 265 265 274 280 289 295 299 299 296 294 292 289 282 272 262 261 254 243 229 212 207 197 198 216 269 334 356 48 96 68 110 143 143 147 198 218 219 216 223 229 232 240 245
240 231 250 255 258 262 274 271 274 291 297 299 298 300 300 298 293 289 284 275 264 256 246 237 223 209 202 201 204 214 267 308 322 92 98 109 115 122 169 160 199 198 226 213 221 229 232 239 250
234 233 256 254 259 263 271 274 280 296 301 305 303 303 304 303 297 288 285 276 264 254 241 233 222 216 206 200 210 225 245 293 306 88 103 90 127 120 145 161 165 166 205 200 222 230 217 237 243
235 242 258 262 274 269 271 285 290 296 302 307 305 304 305 304 301 294 288 277 266 250 241 236 228 222 220 215 216 234 247 261 290 312 90 101 44 109 146 148 158 171 182 183 183 198 202 239 228
249 243 252 255 255 259 271 280 290 297 303 305 305 306 305 304 304 298 293 284 265 249 240 238 234 234 230 222 227 240 246 248 274 287 289 50 53 113 140 159 163 174 179 185 181 193 218 238 250
241 247 258 261 266 273 280 293 308 310 311 308 306 309 309 312 309 304 298 288 269 250 239 237 234 235 227 225 228 237 243 248 261 272 267 129 109 103 120 146 153 160 163 172 188 188 187 194 198
248 252 257 261 269 277 287 295 322 319 315 318 314 315 315 319 319 313 305 297 275 254 241 239 239 235 228 227 231 243 249 237 244 262 269 277 271 122 128 131 145 155 164 172 178 185 189 190 193